COSMOS 1285 DEB, 27801

Orbit data source: Space-Track

COSMOS 1285 DEB, 27801 is space debris originally from a launch on Tue, 04 Aug 1981 UTC launched from the Plesetsk Missile And Space Complex (PKMTR). Debris objects in space refer to the collection of defunct objects orbiting the Earth. Examples of debris include non-operational satellites, rocket bodies, and fragments generated from explosions, collisions, or faulty payload assembly.

Loading next visibility...
Identifier
27801, 1981-071Q
Orbit
Molniya
Country
Flag of CISCIS
Related business
Manufacturer
Unknown
Mission
Spacecraft
Bus & Motor
Unknown
Mass
Unknown
Launch date (UTC)
1981-08-04 (44 years ago)
Launch vehicle
Unknown
Launch site
Plesetsk Missile And Space Complex (PKMTR)
Object type
Payload
Rocket body
Debris
Shape & HBR
Unknown shape, 0.4 m
Radar Cross Section
Medium (>0.1 m² and <1 m²)

Expand to show TLE details & history
Last TLE update: 1 day ago

TLE from 1 day ago
0 COSMOS 1285 DEB
1 27801U 81071Q   25300.12393948 -.00000553  00000-0  00000-0 0  9998
2 27801  64.0871  67.8715 7213640  38.5086 355.2181  1.97987048178951
Epoch: 2025-10-27T02:58Z
TLE epoch observation values (Epoch: 2025-10-27T02:58:28.371Z)
Latitude
0.00036°
Longitude
-12.49133°
Altitude
1,834.797 km
Speed
9.067 km/s
True Right ascension
04h 31m 25s
True Declination
0° 00' 01"
Sunlit
Object was in full shadow at epoch
Visualization orbit readout
Latitude
Unknown
Longitude
Unknown
Altitude
Unknown
Speed
Unknown
Apparent Right ascension
Unknown
Apparent Declination
Unknown
Sunlit
N/A
Visualization observer readout
Local Sidereal Time
09:19:04
Azimuth
Unknown
Elevation
Unknown
Doppler factor
Unknown
Orbital elements
Apogee altitude
39,735.903 km
Perigee altitude
1,086.311 km
Semi-major axis
26,789.244 km
Eccentricity
0.72136
Inclination
64.0871°
RAAN
67.8715°
Arg. of periapsis
38.5086°
True anomaly
320.21361°
Mean anomaly
355.2181°
Eccentric anomaly
343.43331°
Mean motion
0.495 °/min
Orbital period
727.28 mins
BSTAR
0
Loading maneuver chart data...
Computing Atmospheric mass density...
Loading historical data...
Loading historical data...
Loading historical data...
Loading historical data...
Loading historical data...
Loading historical data...
Loading historical data...

Documentation

Showing up to 5 results
|